Theta_e
306 308 309 303 302 304 300 298 299 301 305 310 314 322 328 327 328 328 332 337 342 345 347 350 345 338 339 339 340 345 346 349
306 308 306 307 307 301 302 296 294 298 300 303 314 316 327 327 328 331 334 337 341 340 339 344 350 356 344 344 345 346 349 352
305 306 305 303 303 301 303 301 297 296 300 316 316 320 328 329 331 335 335 337 335 336 340 342 350 351 349 350 347 346 349 349
302 305 306 306 306 307 300 300 301 302 301 312 316 320 329 330 332 332 328 329 334 335 339 341 346 347 349 347 345 347 348 347
300 302 305 305 304 305 305 306 303 300 302 315 318 320 323 328 331 331 329 331 333 335 337 339 338 336 340 345 346 348 347 343
298 302 305 304 304 304 306 303 303 304 306 312 317 318 321 324 333 330 328 329 331 335 337 335 338 336 338 344 347 347 346 342
302 302 304 305 305 304 304 307 305 307 307 313 320 319 321 324 330 331 330 331 331 334 338 339 340 341 343 344 348 346 344 341
302 306 305 306 306 305 305 304 308 309 309 323 322 321 321 322 324 328 331 335 331 332 333 340 345 345 344 347 346 344 343 341
300 305 303 303 311 310 315 317 315 310 317 322 321 320 321 323 323 325 329 330 333 334 335 338 346 347 343 345 343 341 341 342
303 303 295 310 320 319 316 316 318 318 320 322 322 322 332 334 328 326 327 330 335 342 345 342 347 346 342 343 339 337 339 339
302 300 304 309 313 315 314 314 318 318 321 323 326 322 324 334 337 334 335 335 342 353 350 348 347 344 342 340 339 336 336 338
303 298 296 308 313 318 319 309 319 319 321 321 326 317 324 333 335 335 336 343 350 352 350 347 345 345 341 339 336 335 335 339
300 298 303 312 313 318 308 308 318 320 321 319 320 322 327 337 336 336 335 334 347 351 349 349 348 346 342 340 340 341 339 339
299 299 298 313 314 311 315 319 317 319 319 317 320 326 328 330 336 336 335 336 340 347 349 349 348 345 343 342 346 344 343 342
307 306 314 316 314 316 316 316 317 318 320 320 320 322 324 326 330 336 336 337 339 338 339 344 346 344 345 346 343 343 342 342
307 313 314 316 317 318 319 319 321 322 321 321 319 320 320 322 325 328 333 336 338 338 336 337 339 345 346 345 343 343 342 340
306 312 314 314 317 318 319 320 320 320 319 318 321 321 321 322 324 326 329 333 334 334 334 334 335 337 340 343 344 342 342 341
303 312 312 313 317 320 319 320 320 319 320 323 322 320 322 322 324 326 329 334 334 335 333 332 330 332 335 338 341 339 335 334
311 314 316 317 319 321 321 322 322 323 324 324 324 324 323 321 325 322 330 331 330 331 331 329 328 327 329 333 337 335 331 332
Wind_Speed
6 5 7 6 6 3 6 2 3 1 4 11 6 5 5 6 3 5 5 7 12 14 12 13 17 16 18 15 14 8 9 10
2 5 5 5 9 4 1 4 6 5 4 6 8 7 4 7 4 5 7 9 9 9 14 12 12 15 16 13 7 7 11 10
4 7 9 5 4 4 2 3 5 8 4 6 5 5 7 7 5 8 10 9 7 9 6 6 11 12 12 14 9 10 11 9
14 3 1 2 3 5 4 5 1 4 4 2 5 6 6 8 6 8 4 4 5 5 5 6 12 14 12 10 10 11 11 9
6 5 3 5 5 4 5 2 7 5 3 6 4 5 7 11 5 7 5 4 5 5 3 8 4 6 11 11 10 10 11 10
11 10 3 6 7 7 5 5 8 5 2 9 13 12 10 9 7 6 5 4 4 5 6 7 8 5 8 7 7 7 8 7
2 3 3 3 10 10 7 1 4 6 5 8 13 13 13 9 8 10 10 7 6 9 8 5 4 4 4 4 6 8 8 9
3 4 5 11 6 6 4 4 1 1 3 11 9 11 11 9 7 9 9 11 8 10 8 8 6 5 4 6 8 9 10 10
4 3 5 6 7 3 7 8 4 2 6 14 12 11 10 11 8 9 9 9 10 11 11 11 9 9 9 7 9 11 11 10
2 1 5 5 4 6 12 7 5 4 9 12 12 8 8 9 9 7 7 10 10 11 11 11 11 10 11 13 9 10 12 10
2 2 5 2 1 2 2 4 5 5 8 11 12 3 1 13 12 10 10 8 7 8 10 12 12 10 12 13 13 9 9 12
3 4 7 4 2 3 0 5 4 6 9 14 13 1 6 14 13 11 10 8 5 8 9 11 12 13 12 12 11 12 13 13
5 2 2 5 3 6 7 4 6 6 7 9 6 5 12 12 10 7 6 7 5 7 10 12 13 13 11 11 14 14 14 14
2 3 5 6 5 4 4 2 5 6 6 8 10 11 9 11 10 9 10 9 7 5 3 5 9 11 12 15 12 12 12 13
2 4 4 5 5 1 2 4 4 7 9 9 11 11 12 12 12 11 10 8 8 9 8 3 4 6 8 6 8 12 13 13
3 3 4 4 3 1 2 5 6 6 7 8 11 15 15 13 12 13 13 12 11 10 9 10 5 8 10 8 10 10 10 10
3 1 2 2 0 2 2 3 4 6 7 8 12 15 14 14 13 11 11 10 7 6 7 8 5 6 7 8 8 10 9 8
2 3 3 3 2 0 2 4 5 6 8 8 11 9 12 12 11 11 10 7 5 5 4 2 4 5 5 3 4 8 7 4
3 2 3 2 2 3 5 7 8 9 9 11 9 6 10 9 9 10 9 5 3 3 4 3 2 3 4 2 1 4 4 7
Wind_Direction
209 162 189 151 208 53 114 59 253 297 258 268 258 248 324 306 237 203 165 122 140 148 134 147 172 172 192 180 228 190 145 199
145 149 70 231 138 179 173 178 239 206 263 266 275 244 256 257 220 142 133 150 156 156 145 150 161 173 190 193 215 171 158 179
208 201 192 153 180 68 110 293 271 268 239 229 269 232 230 239 197 149 156 167 166 164 155 142 118 132 153 176 165 163 160 156
226 111 3 159 175 176 234 187 234 295 243 184 197 209 234 239 192 132 136 144 166 164 188 178 151 128 143 136 157 165 140 131
203 156 158 210 181 167 109 150 184 214 220 68 23 298 268 280 208 163 192 190 167 200 201 250 168 150 134 136 159 140 134 145
236 229 151 176 180 181 221 187 156 223 267 44 17 346 290 250 229 181 216 283 132 187 218 254 286 127 101 98 117 124 133 139
40 328 193 150 174 168 217 192 208 156 183 44 352 327 316 278 229 198 208 232 145 164 202 204 210 105 111 105 145 155 156 160
101 34 130 92 60 158 105 131 40 29 115 12 352 339 329 327 258 226 219 232 176 176 172 188 185 167 167 192 174 171 173 168
143 23 144 111 11 59 100 64 337 62 359 335 346 1 351 339 316 255 218 230 210 208 191 189 182 169 172 183 171 169 175 167
108 192 199 77 33 94 107 71 29 330 331 331 323 314 16 351 335 313 247 240 223 214 221 205 180 175 187 155 183 178 165 169
215 136 108 218 66 333 319 83 20 325 335 338 331 263 249 3 344 313 311 271 243 197 177 172 177 162 172 157 161 186 186 167
159 187 187 82 40 13 313 190 14 346 351 346 347 279 14 341 338 331 329 302 254 177 169 166 171 174 166 164 174 183 180 176
186 142 100 32 348 163 199 81 2 353 349 341 356 346 309 320 331 342 340 329 272 201 177 176 171 170 171 175 204 200 180 169
150 147 185 15 131 244 27 328 331 316 325 326 317 316 317 331 328 332 343 355 355 289 206 170 177 179 188 197 193 186 184 177
297 64 103 65 80 114 298 304 323 307 317 318 316 331 332 326 321 314 309 324 332 325 323 311 224 219 220 204 179 191 187 189
216 118 100 89 131 111 332 327 333 326 333 338 336 333 326 324 317 316 314 313 319 309 286 281 267 255 250 206 194 186 202 198
82 105 99 48 308 338 353 345 7 12 1 353 344 340 337 326 319 314 309 304 311 303 301 307 304 258 224 214 179 201 203 204
118 143 78 89 50 334 337 359 348 336 340 343 343 343 339 342 337 334 319 300 299 322 316 323 17 22 8 30 211 193 169 168
52 107 88 80 325 349 342 356 333 318 318 325 331 335 347 340 335 331 333 16 17 344 54 58 60 3 345 356 120 137 145 136